owner,sensor,date,latitude,longitude,relative_humidity,qcFlag 
COMPS,ioos:station:USF.COMPS:ARP:1,2019-11-01T00:54:00,28.4330,-82.6670,89.1,11111222 
COMPS,ioos:station:USF.COMPS:ARP:1,2019-11-01T01:54:00,28.4330,-82.6670,89.52,11111222 
COMPS,ioos:station:USF.COMPS:ARP:1,2019-11-01T02:54:00,28.4330,-82.6670,85.5,11111222 
COMPS,ioos:station:USF.COMPS:ARP:1,2019-11-01T03:54:00,28.4330,-82.6670,83.56,11111222 
COMPS,ioos:station:USF.COMPS:ARP:1,2019-11-01T04:54:00,28.4330,-82.6670,83.38,11111222 
COMPS,ioos:station:USF.COMPS:ARP:1,2019-11-01T05:54:00,28.4330,-82.6670,88.76,11111222 
COMPS,ioos:station:USF.COMPS:ARP:1,2019-11-01T06:54:00,28.4330,-82.6670,92.86,11111222 
COMPS,ioos:station:USF.COMPS:ARP:1,2019-11-01T07:54:00,28.4330,-82.6670,92.22,11111222 
COMPS,ioos:station:USF.COMPS:ARP:1,2019-11-01T08:54:00,28.4330,-82.6670,81.35,11111222 
COMPS,ioos:station:USF.COMPS:ARP:1,2019-11-01T09:54:00,28.4330,-82.6670,75.85,11111222 
COMPS,ioos:station:USF.COMPS:ARP:1,2019-11-01T10:54:00,28.4330,-82.6670,77.93,11111222 
COMPS,ioos:station:USF.COMPS:ARP:1,2019-11-01T11:54:00,28.4330,-82.6670,73.83,11111222 
COMPS,ioos:station:USF.COMPS:ARP:1,2019-11-01T12:54:00,28.4330,-82.6670,71.06,11111222 
COMPS,ioos:station:USF.COMPS:ARP:1,2019-11-01T13:54:00,28.4330,-82.6670,63.99,11111222 
COMPS,ioos:station:USF.COMPS:ARP:1,2019-11-01T14:54:00,28.4330,-82.6670,63.59,11111222 
COMPS,ioos:station:USF.COMPS:ARP:1,2019-11-01T15:54:00,28.4330,-82.6670,61.66,11111222 
COMPS,ioos:station:USF.COMPS:ARP:1,2019-11-01T16:54:00,28.4330,-82.6670,61.88,11111222 
COMPS,ioos:station:USF.COMPS:ARP:1,2019-11-01T17:54:00,28.4330,-82.6670,64.1,11111222 
COMPS,ioos:station:USF.COMPS:ARP:1,2019-11-01T18:54:00,28.4330,-82.6670,64.5,11111222 
COMPS,ioos:station:USF.COMPS:ARP:1,2019-11-01T19:54:00,28.4330,-82.6670,66.73,11111222 
COMPS,ioos:station:USF.COMPS:ARP:1,2019-11-01T20:54:00,28.4330,-82.6670,65.1,11111222 
COMPS,ioos:station:USF.COMPS:ARP:1,2019-11-01T21:54:00,28.4330,-82.6670,66.25,11111222 
COMPS,ioos:station:USF.COMPS:ARP:1,2019-11-01T22:54:00,28.4330,-82.6670,69.25,11111222 
COMPS,ioos:station:USF.COMPS:ARP:1,2019-11-01T23:54:00,28.4330,-82.6670,71.32,11111222 
COMPS,ioos:station:USF.COMPS:ARP:1,2019-11-02T00:54:00,28.4330,-82.6670,75.05,11111222 
COMPS,ioos:station:USF.COMPS:ARP:1,2019-11-02T01:54:00,28.4330,-82.6670,80.79,11111222 
COMPS,ioos:station:USF.COMPS:ARP:1,2019-11-02T02:54:00,28.4330,-82.6670,83.98,11111222 
COMPS,ioos:station:USF.COMPS:ARP:1,2019-11-02T03:54:00,28.4330,-82.6670,85.23,11111222 
COMPS,ioos:station:USF.COMPS:ARP:1,2019-11-02T04:54:00,28.4330,-82.6670,83.45,11111222 
COMPS,ioos:station:USF.COMPS:ARP:1,2019-11-02T05:54:00,28.4330,-82.6670,83.64,11111222 
COMPS,ioos:station:USF.COMPS:ARP:1,2019-11-02T06:54:00,28.4330,-82.6670,84.33,11111222 
COMPS,ioos:station:USF.COMPS:ARP:1,2019-11-02T07:54:00,28.4330,-82.6670,86.31,11111222 
COMPS,ioos:station:USF.COMPS:ARP:1,2019-11-02T08:54:00,28.4330,-82.6670,85.47,11111222 
COMPS,ioos:station:USF.COMPS:ARP:1,2019-11-02T09:54:00,28.4330,-82.6670,84.46,11111222 
COMPS,ioos:station:USF.COMPS:ARP:1,2019-11-02T10:54:00,28.4330,-82.6670,87.67,11111222 
COMPS,ioos:station:USF.COMPS:ARP:1,2019-11-02T11:54:00,28.4330,-82.6670,87.63,11111222 
COMPS,ioos:station:USF.COMPS:ARP:1,2019-11-02T12:54:00,28.4330,-82.6670,85.95,11111222 
COMPS,ioos:station:USF.COMPS:ARP:1,2019-11-02T13:54:00,28.4330,-82.6670,83.18,11111222 
COMPS,ioos:station:USF.COMPS:ARP:1,2019-11-02T14:54:00,28.4330,-82.6670,80.95,11111222 
COMPS,ioos:station:USF.COMPS:ARP:1,2019-11-02T15:54:00,28.4330,-82.6670,79.35,11111222 
COMPS,ioos:station:USF.COMPS:ARP:1,2019-11-02T16:54:00,28.4330,-82.6670,81.11,11111222 
COMPS,ioos:station:USF.COMPS:ARP:1,2019-11-02T17:54:00,28.4330,-82.6670,77.8,11111222 
COMPS,ioos:station:USF.COMPS:ARP:1,2019-11-02T18:54:00,28.4330,-82.6670,79.36,11111222 
COMPS,ioos:station:USF.COMPS:ARP:1,2019-11-02T19:54:00,28.4330,-82.6670,77.95,11111222 
COMPS,ioos:station:USF.COMPS:ARP:1,2019-11-02T20:54:00,28.4330,-82.6670,75.11,11111222 
COMPS,ioos:station:USF.COMPS:ARP:1,2019-11-02T21:54:00,28.4330,-82.6670,76.75,11111222 
COMPS,ioos:station:USF.COMPS:ARP:1,2019-11-02T23:54:00,28.4330,-82.6670,76.81,11111222 
COMPS,ioos:station:USF.COMPS:ARP:1,2019-11-03T00:54:00,28.4330,-82.6670,75.58,11111222 
COMPS,ioos:station:USF.COMPS:ARP:1,2019-11-03T01:54:00,28.4330,-82.6670,76.78,11111222 
COMPS,ioos:station:USF.COMPS:ARP:1,2019-11-03T02:54:00,28.4330,-82.6670,78.19,11111222 
COMPS,ioos:station:USF.COMPS:ARP:1,2019-11-03T03:54:00,28.4330,-82.6670,77.86,11111222 
COMPS,ioos:station:USF.COMPS:ARP:1,2019-11-03T04:54:00,28.4330,-82.6670,76.92,11111222 
COMPS,ioos:station:USF.COMPS:ARP:1,2019-11-03T05:54:00,28.4330,-82.6670,76.19,11111222 
COMPS,ioos:station:USF.COMPS:ARP:1,2019-11-03T06:54:00,28.4330,-82.6670,75.43,11111222 
COMPS,ioos:station:USF.COMPS:ARP:1,2019-11-03T07:54:00,28.4330,-82.6670,62.0,11111222 
COMPS,ioos:station:USF.COMPS:ARP:1,2019-11-03T08:54:00,28.4330,-82.6670,56.01,11111222 
COMPS,ioos:station:USF.COMPS:ARP:1,2019-11-03T09:54:00,28.4330,-82.6670,55.63,11111222 
COMPS,ioos:station:USF.COMPS:ARP:1,2019-11-03T10:54:00,28.4330,-82.6670,57.32,11111222 
COMPS,ioos:station:USF.COMPS:ARP:1,2019-11-03T11:54:00,28.4330,-82.6670,59.06,11111222 
COMPS,ioos:station:USF.COMPS:ARP:1,2019-11-03T12:54:00,28.4330,-82.6670,61.29,11111222 
COMPS,ioos:station:USF.COMPS:ARP:1,2019-11-03T13:54:00,28.4330,-82.6670,61.75,11111222 
COMPS,ioos:station:USF.COMPS:ARP:1,2019-11-03T14:54:00,28.4330,-82.6670,62.04,11111222 
COMPS,ioos:station:USF.COMPS:ARP:1,2019-11-03T15:54:00,28.4330,-82.6670,63.83,11111222 
COMPS,ioos:station:USF.COMPS:ARP:1,2019-11-03T16:54:00,28.4330,-82.6670,62.89,11111222 
COMPS,ioos:station:USF.COMPS:ARP:1,2019-11-03T17:54:00,28.4330,-82.6670,63.8,11111222 
COMPS,ioos:station:USF.COMPS:ARP:1,2019-11-03T18:54:00,28.4330,-82.6670,63.0,11111222 
COMPS,ioos:station:USF.COMPS:ARP:1,2019-11-03T19:54:00,28.4330,-82.6670,63.36,11111222 
COMPS,ioos:station:USF.COMPS:ARP:1,2019-11-03T20:54:00,28.4330,-82.6670,64.14,11111222 
COMPS,ioos:station:USF.COMPS:ARP:1,2019-11-03T21:54:00,28.4330,-82.6670,66.87,11111222 
COMPS,ioos:station:USF.COMPS:ARP:1,2019-11-03T22:54:00,28.4330,-82.6670,67.93,11111222 
COMPS,ioos:station:USF.COMPS:ARP:1,2019-11-03T23:54:00,28.4330,-82.6670,71.25,11111222 
COMPS,ioos:station:USF.COMPS:ARP:1,2019-11-04T00:54:00,28.4330,-82.6670,76.56,11111222 
COMPS,ioos:station:USF.COMPS:ARP:1,2019-11-04T01:54:00,28.4330,-82.6670,75.97,11111222 
COMPS,ioos:station:USF.COMPS:ARP:1,2019-11-04T02:54:00,28.4330,-82.6670,77.23,11111222 
COMPS,ioos:station:USF.COMPS:ARP:1,2019-11-04T03:54:00,28.4330,-82.6670,79.44,11111222 
COMPS,ioos:station:USF.COMPS:ARP:1,2019-11-04T04:54:00,28.4330,-82.6670,82.4,11111222 
COMPS,ioos:station:USF.COMPS:ARP:1,2019-11-04T14:54:00,28.4330,-82.6670,79.2,11111222 
COMPS,ioos:station:USF.COMPS:ARP:1,2019-11-04T15:54:00,28.4330,-82.6670,73.67,11111222 
COMPS,ioos:station:USF.COMPS:ARP:1,2019-11-04T16:54:00,28.4330,-82.6670,72.35,11111222 
COMPS,ioos:station:USF.COMPS:ARP:1,2019-11-04T17:54:00,28.4330,-82.6670,70.68,11111222 
COMPS,ioos:station:USF.COMPS:ARP:1,2019-11-04T18:54:00,28.4330,-82.6670,69.55,11111222 
COMPS,ioos:station:USF.COMPS:ARP:1,2019-11-04T19:54:00,28.4330,-82.6670,73.23,11111222 
COMPS,ioos:station:USF.COMPS:ARP:1,2019-11-04T20:54:00,28.4330,-82.6670,76.86,11111222 
COMPS,ioos:station:USF.COMPS:ARP:1,2019-11-04T21:54:00,28.4330,-82.6670,73.68,11111222 
COMPS,ioos:station:USF.COMPS:ARP:1,2019-11-04T22:54:00,28.4330,-82.6670,75.78,11111222 
COMPS,ioos:station:USF.COMPS:ARP:1,2019-11-04T23:54:00,28.4330,-82.6670,76.92,11111222 
COMPS,ioos:station:USF.COMPS:ARP:1,2019-11-05T00:54:00,28.4330,-82.6670,79.4,11111222 
COMPS,ioos:station:USF.COMPS:ARP:1,2019-11-05T01:54:00,28.4330,-82.6670,81.71,11111222 
COMPS,ioos:station:USF.COMPS:ARP:1,2019-11-05T02:54:00,28.4330,-82.6670,83.86,11111222 
COMPS,ioos:station:USF.COMPS:ARP:1,2019-11-05T03:54:00,28.4330,-82.6670,85.66,11111222 
COMPS,ioos:station:USF.COMPS:ARP:1,2019-11-05T04:54:00,28.4330,-82.6670,87.98,11111222 
COMPS,ioos:station:USF.COMPS:ARP:1,2019-11-05T05:54:00,28.4330,-82.6670,88.48,11111222 
COMPS,ioos:station:USF.COMPS:ARP:1,2019-11-05T06:54:00,28.4330,-82.6670,89.13,11111222 
COMPS,ioos:station:USF.COMPS:ARP:1,2019-11-05T07:54:00,28.4330,-82.6670,91.54,11111222 
COMPS,ioos:station:USF.COMPS:ARP:1,2019-11-05T08:54:00,28.4330,-82.6670,93.03,11111222 
COMPS,ioos:station:USF.COMPS:ARP:1,2019-11-05T09:54:00,28.4330,-82.6670,92.67,11111222 
COMPS,ioos:station:USF.COMPS:ARP:1,2019-11-05T10:54:00,28.4330,-82.6670,93.06,11111222 
COMPS,ioos:station:USF.COMPS:ARP:1,2019-11-05T11:54:00,28.4330,-82.6670,92.86,11111222 
COMPS,ioos:station:USF.COMPS:ARP:1,2019-11-05T12:54:00,28.4330,-82.6670,86.28,11111222 
COMPS,ioos:station:USF.COMPS:ARP:1,2019-11-05T13:54:00,28.4330,-82.6670,86.81,11111222 
COMPS,ioos:station:USF.COMPS:ARP:1,2019-11-05T14:54:00,28.4330,-82.6670,80.49,11111222 
COMPS,ioos:station:USF.COMPS:ARP:1,2019-11-05T15:54:00,28.4330,-82.6670,84.68,11111222 
COMPS,ioos:station:USF.COMPS:ARP:1,2019-11-05T16:54:00,28.4330,-82.6670,85.68,11111222 
COMPS,ioos:station:USF.COMPS:ARP:1,2019-11-05T17:54:00,28.4330,-82.6670,86.75,11111222 
COMPS,ioos:station:USF.COMPS:ARP:1,2019-11-05T18:54:00,28.4330,-82.6670,90.47,11111222 
COMPS,ioos:station:USF.COMPS:ARP:1,2019-11-05T19:54:00,28.4330,-82.6670,83.68,11111222 
COMPS,ioos:station:USF.COMPS:ARP:1,2019-11-05T20:54:00,28.4330,-82.6670,86.71,11111222 
COMPS,ioos:station:USF.COMPS:ARP:1,2019-11-05T21:54:00,28.4330,-82.6670,85.26,11111222 
COMPS,ioos:station:USF.COMPS:ARP:1,2019-11-05T22:54:00,28.4330,-82.6670,89.24,11111222 
COMPS,ioos:station:USF.COMPS:ARP:1,2019-11-05T23:54:00,28.4330,-82.6670,88.28,11111222 
COMPS,ioos:station:USF.COMPS:ARP:1,2019-11-06T00:54:00,28.4330,-82.6670,93.12,11111222 
COMPS,ioos:station:USF.COMPS:ARP:1,2019-11-06T01:54:00,28.4330,-82.6670,91.75,11111222 
COMPS,ioos:station:USF.COMPS:ARP:1,2019-11-06T02:54:00,28.4330,-82.6670,87.9,11111222 
COMPS,ioos:station:USF.COMPS:ARP:1,2019-11-06T03:54:00,28.4330,-82.6670,93.16,11111222 
COMPS,ioos:station:USF.COMPS:ARP:1,2019-11-06T04:54:00,28.4330,-82.6670,91.09,11111222 
COMPS,ioos:station:USF.COMPS:ARP:1,2019-11-06T05:54:00,28.4330,-82.6670,91.3,11111222 
COMPS,ioos:station:USF.COMPS:ARP:1,2019-11-06T06:54:00,28.4330,-82.6670,95.18,11111222 
COMPS,ioos:station:USF.COMPS:ARP:1,2019-11-06T07:54:00,28.4330,-82.6670,94.97,11111222 
COMPS,ioos:station:USF.COMPS:ARP:1,2019-11-06T08:54:00,28.4330,-82.6670,95.1,11111222 
COMPS,ioos:station:USF.COMPS:ARP:1,2019-11-06T09:54:00,28.4330,-82.6670,97.06,11111222 
COMPS,ioos:station:USF.COMPS:ARP:1,2019-11-06T10:54:00,28.4330,-82.6670,97.08,11111222 
COMPS,ioos:station:USF.COMPS:ARP:1,2019-11-06T11:54:00,28.4330,-82.6670,96.55,11111222 
COMPS,ioos:station:USF.COMPS:ARP:1,2019-11-06T12:54:00,28.4330,-82.6670,96.23,11111222 
COMPS,ioos:station:USF.COMPS:ARP:1,2019-11-06T13:54:00,28.4330,-82.6670,92.87,11111222 
COMPS,ioos:station:USF.COMPS:ARP:1,2019-11-06T14:54:00,28.4330,-82.6670,91.51,11111222 
COMPS,ioos:station:USF.COMPS:ARP:1,2019-11-06T15:54:00,28.4330,-82.6670,89.27,11111222 
COMPS,ioos:station:USF.COMPS:ARP:1,2019-11-06T16:54:00,28.4330,-82.6670,87.26,11111222 
COMPS,ioos:station:USF.COMPS:ARP:1,2019-11-06T17:54:00,28.4330,-82.6670,84.14,11111222 
COMPS,ioos:station:USF.COMPS:ARP:1,2019-11-06T18:54:00,28.4330,-82.6670,81.37,11111222 
COMPS,ioos:station:USF.COMPS:ARP:1,2019-11-06T19:54:00,28.4330,-82.6670,78.98,11111222 
COMPS,ioos:station:USF.COMPS:ARP:1,2019-11-06T20:54:00,28.4330,-82.6670,77.76,11111222 
COMPS,ioos:station:USF.COMPS:ARP:1,2019-11-06T21:54:00,28.4330,-82.6670,72.14,11111222 
COMPS,ioos:station:USF.COMPS:ARP:1,2019-11-06T22:54:00,28.4330,-82.6670,75.71,11111222 
COMPS,ioos:station:USF.COMPS:ARP:1,2019-11-06T23:54:00,28.4330,-82.6670,78.2,11111222 
COMPS,ioos:station:USF.COMPS:ARP:1,2019-11-07T00:54:00,28.4330,-82.6670,79.83,11111222 
COMPS,ioos:station:USF.COMPS:ARP:1,2019-11-07T01:54:00,28.4330,-82.6670,83.46,11111222 
COMPS,ioos:station:USF.COMPS:ARP:1,2019-11-07T02:54:00,28.4330,-82.6670,87.79,11111222 
COMPS,ioos:station:USF.COMPS:ARP:1,2019-11-07T03:54:00,28.4330,-82.6670,90.31,11111222 
COMPS,ioos:station:USF.COMPS:ARP:1,2019-11-07T04:54:00,28.4330,-82.6670,91.71,11111222 
COMPS,ioos:station:USF.COMPS:ARP:1,2019-11-07T05:54:00,28.4330,-82.6670,93.32,11111222 
COMPS,ioos:station:USF.COMPS:ARP:1,2019-11-07T06:54:00,28.4330,-82.6670,93.59,11111222 
COMPS,ioos:station:USF.COMPS:ARP:1,2019-11-07T07:54:00,28.4330,-82.6670,94.1,11111222 
COMPS,ioos:station:USF.COMPS:ARP:1,2019-11-07T08:54:00,28.4330,-82.6670,94.94,11111222 
COMPS,ioos:station:USF.COMPS:ARP:1,2019-11-07T09:54:00,28.4330,-82.6670,94.95,11111222 
COMPS,ioos:station:USF.COMPS:ARP:1,2019-11-07T10:54:00,28.4330,-82.6670,95.2,11111222 
COMPS,ioos:station:USF.COMPS:ARP:1,2019-11-07T11:54:00,28.4330,-82.6670,95.52,11111222 
COMPS,ioos:station:USF.COMPS:ARP:1,2019-11-07T12:54:00,28.4330,-82.6670,96.27,11111222 
COMPS,ioos:station:USF.COMPS:ARP:1,2019-11-07T13:54:00,28.4330,-82.6670,92.66,11111222 
COMPS,ioos:station:USF.COMPS:ARP:1,2019-11-07T14:54:00,28.4330,-82.6670,86.42,11111222 
COMPS,ioos:station:USF.COMPS:ARP:1,2019-11-07T15:54:00,28.4330,-82.6670,78.84,11111222 
COMPS,ioos:station:USF.COMPS:ARP:1,2019-11-07T16:54:00,28.4330,-82.6670,69.77,11111222 
COMPS,ioos:station:USF.COMPS:ARP:1,2019-11-07T17:54:00,28.4330,-82.6670,77.34,11111222 
COMPS,ioos:station:USF.COMPS:ARP:1,2019-11-07T18:54:00,28.4330,-82.6670,84.88,11111222 
COMPS,ioos:station:USF.COMPS:ARP:1,2019-11-07T19:54:00,28.4330,-82.6670,79.55,11111222 
COMPS,ioos:station:USF.COMPS:ARP:1,2019-11-07T20:54:00,28.4330,-82.6670,80.07,11111222 
COMPS,ioos:station:USF.COMPS:ARP:1,2019-11-07T21:54:00,28.4330,-82.6670,74.77,11111222 
COMPS,ioos:station:USF.COMPS:ARP:1,2019-11-07T22:54:00,28.4330,-82.6670,79.87,11111222 
COMPS,ioos:station:USF.COMPS:ARP:1,2019-11-07T23:54:00,28.4330,-82.6670,80.41,11111222 
COMPS,ioos:station:USF.COMPS:ARP:1,2019-11-08T00:54:00,28.4330,-82.6670,78.28,11111222 
COMPS,ioos:station:USF.COMPS:ARP:1,2019-11-08T01:54:00,28.4330,-82.6670,85.87,11111222 
COMPS,ioos:station:USF.COMPS:ARP:1,2019-11-08T02:54:00,28.4330,-82.6670,85.23,11111222 
COMPS,ioos:station:USF.COMPS:ARP:1,2019-11-08T03:54:00,28.4330,-82.6670,85.8,11111222 
COMPS,ioos:station:USF.COMPS:ARP:1,2019-11-08T04:54:00,28.4330,-82.6670,91.0,11111222 
COMPS,ioos:station:USF.COMPS:ARP:1,2019-11-08T05:54:00,28.4330,-82.6670,88.53,11111222 
COMPS,ioos:station:USF.COMPS:ARP:1,2019-11-08T06:54:00,28.4330,-82.6670,89.5,11111222 
COMPS,ioos:station:USF.COMPS:ARP:1,2019-11-08T07:54:00,28.4330,-82.6670,89.55,11111222 
COMPS,ioos:station:USF.COMPS:ARP:1,2019-11-08T08:54:00,28.4330,-82.6670,90.8,11111222 
COMPS,ioos:station:USF.COMPS:ARP:1,2019-11-08T09:54:00,28.4330,-82.6670,90.74,11111222 
COMPS,ioos:station:USF.COMPS:ARP:1,2019-11-08T10:54:00,28.4330,-82.6670,89.65,11111222 
COMPS,ioos:station:USF.COMPS:ARP:1,2019-11-08T11:54:00,28.4330,-82.6670,90.26,11111222 
COMPS,ioos:station:USF.COMPS:ARP:1,2019-11-08T12:54:00,28.4330,-82.6670,88.23,11111222 
COMPS,ioos:station:USF.COMPS:ARP:1,2019-11-08T13:54:00,28.4330,-82.6670,83.95,11111222 
COMPS,ioos:station:USF.COMPS:ARP:1,2019-11-08T14:54:00,28.4330,-82.6670,82.44,11111222 
COMPS,ioos:station:USF.COMPS:ARP:1,2019-11-08T15:54:00,28.4330,-82.6670,81.76,11111222 
COMPS,ioos:station:USF.COMPS:ARP:1,2019-11-08T16:54:00,28.4330,-82.6670,79.13,11111222 
COMPS,ioos:station:USF.COMPS:ARP:1,2019-11-08T17:54:00,28.4330,-82.6670,80.7,11111222 
COMPS,ioos:station:USF.COMPS:ARP:1,2019-11-08T18:54:00,28.4330,-82.6670,79.92,11111222 
COMPS,ioos:station:USF.COMPS:ARP:1,2019-11-08T19:54:00,28.4330,-82.6670,86.67,11111222 
COMPS,ioos:station:USF.COMPS:ARP:1,2019-11-08T20:54:00,28.4330,-82.6670,91.28,11111222 
COMPS,ioos:station:USF.COMPS:ARP:1,2019-11-08T21:54:00,28.4330,-82.6670,89.26,11111222 
COMPS,ioos:station:USF.COMPS:ARP:1,2019-11-08T22:54:00,28.4330,-82.6670,92.25,11111222 
COMPS,ioos:station:USF.COMPS:ARP:1,2019-11-09T00:54:00,28.4330,-82.6670,90.5,11111222 
COMPS,ioos:station:USF.COMPS:ARP:1,2019-11-09T01:54:00,28.4330,-82.6670,90.93,11111222 
COMPS,ioos:station:USF.COMPS:ARP:1,2019-11-09T02:54:00,28.4330,-82.6670,93.39,11111222 
COMPS,ioos:station:USF.COMPS:ARP:1,2019-11-09T03:54:00,28.4330,-82.6670,92.94,11111222 
COMPS,ioos:station:USF.COMPS:ARP:1,2019-11-09T04:54:00,28.4330,-82.6670,94.59,11111222 
COMPS,ioos:station:USF.COMPS:ARP:1,2019-11-09T05:54:00,28.4330,-82.6670,94.61,11111222 
COMPS,ioos:station:USF.COMPS:ARP:1,2019-11-09T06:54:00,28.4330,-82.6670,95.06,11111222 
COMPS,ioos:station:USF.COMPS:ARP:1,2019-11-09T07:54:00,28.4330,-82.6670,95.03,11111222 
COMPS,ioos:station:USF.COMPS:ARP:1,2019-11-09T08:54:00,28.4330,-82.6670,95.39,11111222 
COMPS,ioos:station:USF.COMPS:ARP:1,2019-11-09T09:54:00,28.4330,-82.6670,95.43,11111222 
COMPS,ioos:station:USF.COMPS:ARP:1,2019-11-09T10:54:00,28.4330,-82.6670,95.2,11111222 
COMPS,ioos:station:USF.COMPS:ARP:1,2019-11-09T11:54:00,28.4330,-82.6670,94.49,11111222 
COMPS,ioos:station:USF.COMPS:ARP:1,2019-11-09T12:54:00,28.4330,-82.6670,93.48,11111222 
COMPS,ioos:station:USF.COMPS:ARP:1,2019-11-09T13:54:00,28.4330,-82.6670,88.98,11111222 
COMPS,ioos:station:USF.COMPS:ARP:1,2019-11-09T14:54:00,28.4330,-82.6670,85.55,11111222 
COMPS,ioos:station:USF.COMPS:ARP:1,2019-11-09T15:54:00,28.4330,-82.6670,84.02,11111222 
COMPS,ioos:station:USF.COMPS:ARP:1,2019-11-09T16:54:00,28.4330,-82.6670,76.3,11111222 
COMPS,ioos:station:USF.COMPS:ARP:1,2019-11-09T17:54:00,28.4330,-82.6670,72.74,11111222 
COMPS,ioos:station:USF.COMPS:ARP:1,2019-11-09T18:54:00,28.4330,-82.6670,69.35,11111222 
COMPS,ioos:station:USF.COMPS:ARP:1,2019-11-09T19:54:00,28.4330,-82.6670,67.06,11111222 
COMPS,ioos:station:USF.COMPS:ARP:1,2019-11-09T20:54:00,28.4330,-82.6670,68.38,11111222 
COMPS,ioos:station:USF.COMPS:ARP:1,2019-11-09T21:54:00,28.4330,-82.6670,69.06,11111222 
COMPS,ioos:station:USF.COMPS:ARP:1,2019-11-09T22:54:00,28.4330,-82.6670,71.31,11111222 
COMPS,ioos:station:USF.COMPS:ARP:1,2019-11-09T23:54:00,28.4330,-82.6670,74.81,11111222 
COMPS,ioos:station:USF.COMPS:ARP:1,2019-11-10T00:54:00,28.4330,-82.6670,77.53,11111222 
COMPS,ioos:station:USF.COMPS:ARP:1,2019-11-10T01:54:00,28.4330,-82.6670,78.87,11111222 
COMPS,ioos:station:USF.COMPS:ARP:1,2019-11-10T02:54:00,28.4330,-82.6670,79.76,11111222 
COMPS,ioos:station:USF.COMPS:ARP:1,2019-11-10T03:54:00,28.4330,-82.6670,81.41,11111222 
COMPS,ioos:station:USF.COMPS:ARP:1,2019-11-10T04:54:00,28.4330,-82.6670,83.26,11111222 
COMPS,ioos:station:USF.COMPS:ARP:1,2019-11-10T05:54:00,28.4330,-82.6670,85.6,11111222 
COMPS,ioos:station:USF.COMPS:ARP:1,2019-11-10T06:54:00,28.4330,-82.6670,87.49,11111222 
COMPS,ioos:station:USF.COMPS:ARP:1,2019-11-10T07:54:00,28.4330,-82.6670,88.99,11111222 
COMPS,ioos:station:USF.COMPS:ARP:1,2019-11-10T08:54:00,28.4330,-82.6670,88.21,11111222 
COMPS,ioos:station:USF.COMPS:ARP:1,2019-11-10T09:54:00,28.4330,-82.6670,87.17,11111222 
COMPS,ioos:station:USF.COMPS:ARP:1,2019-11-10T10:54:00,28.4330,-82.6670,84.96,11111222 
COMPS,ioos:station:USF.COMPS:ARP:1,2019-11-10T11:54:00,28.4330,-82.6670,84.07,11111222 
COMPS,ioos:station:USF.COMPS:ARP:1,2019-11-10T12:54:00,28.4330,-82.6670,81.17,11111222 
COMPS,ioos:station:USF.COMPS:ARP:1,2019-11-10T13:54:00,28.4330,-82.6670,78.54,11111222 
COMPS,ioos:station:USF.COMPS:ARP:1,2019-11-10T14:54:00,28.4330,-82.6670,75.19,11111222 
COMPS,ioos:station:USF.COMPS:ARP:1,2019-11-10T15:54:00,28.4330,-82.6670,70.63,11111222 
COMPS,ioos:station:USF.COMPS:ARP:1,2019-11-10T16:54:00,28.4330,-82.6670,66.25,11111222 
COMPS,ioos:station:USF.COMPS:ARP:1,2019-11-10T17:54:00,28.4330,-82.6670,61.24,11111222 
COMPS,ioos:station:USF.COMPS:ARP:1,2019-11-10T18:54:00,28.4330,-82.6670,56.58,11111222 
COMPS,ioos:station:USF.COMPS:ARP:1,2019-11-10T19:54:00,28.4330,-82.6670,53.19,11111222 
COMPS,ioos:station:USF.COMPS:ARP:1,2019-11-10T20:54:00,28.4330,-82.6670,64.68,11111222 
COMPS,ioos:station:USF.COMPS:ARP:1,2019-11-10T21:54:00,28.4330,-82.6670,65.34,11111222 
COMPS,ioos:station:USF.COMPS:ARP:1,2019-11-10T22:54:00,28.4330,-82.6670,71.78,11111222 
COMPS,ioos:station:USF.COMPS:ARP:1,2019-11-10T23:54:00,28.4330,-82.6670,80.61,11111222 
COMPS,ioos:station:USF.COMPS:ARP:1,2019-11-11T00:54:00,28.4330,-82.6670,80.13,11111222 
COMPS,ioos:station:USF.COMPS:ARP:1,2019-11-11T01:54:00,28.4330,-82.6670,75.08,11111222 
COMPS,ioos:station:USF.COMPS:ARP:1,2019-11-11T02:54:00,28.4330,-82.6670,78.56,11111222 
COMPS,ioos:station:USF.COMPS:ARP:1,2019-11-11T03:54:00,28.4330,-82.6670,80.99,11111222 
COMPS,ioos:station:USF.COMPS:ARP:1,2019-11-11T04:54:00,28.4330,-82.6670,82.8,11111222 
COMPS,ioos:station:USF.COMPS:ARP:1,2019-11-11T05:54:00,28.4330,-82.6670,84.11,11111222 
COMPS,ioos:station:USF.COMPS:ARP:1,2019-11-11T06:54:00,28.4330,-82.6670,85.74,11111222 
COMPS,ioos:station:USF.COMPS:ARP:1,2019-11-11T07:54:00,28.4330,-82.6670,86.35,11111222 
COMPS,ioos:station:USF.COMPS:ARP:1,2019-11-11T08:54:00,28.4330,-82.6670,83.25,11111222 
COMPS,ioos:station:USF.COMPS:ARP:1,2019-11-11T09:54:00,28.4330,-82.6670,82.34,11111222 
COMPS,ioos:station:USF.COMPS:ARP:1,2019-11-11T10:54:00,28.4330,-82.6670,79.35,11111222 
COMPS,ioos:station:USF.COMPS:ARP:1,2019-11-11T11:54:00,28.4330,-82.6670,78.13,11111222 
COMPS,ioos:station:USF.COMPS:ARP:1,2019-11-11T12:54:00,28.4330,-82.6670,76.54,11111222 
COMPS,ioos:station:USF.COMPS:ARP:1,2019-11-11T13:54:00,28.4330,-82.6670,71.16,11111222 
COMPS,ioos:station:USF.COMPS:ARP:1,2019-11-11T14:54:00,28.4330,-82.6670,67.88,11111222 
COMPS,ioos:station:USF.COMPS:ARP:1,2019-11-11T15:54:00,28.4330,-82.6670,70.99,11111222 
COMPS,ioos:station:USF.COMPS:ARP:1,2019-11-11T16:54:00,28.4330,-82.6670,66.27,11111222 
COMPS,ioos:station:USF.COMPS:ARP:1,2019-11-11T17:54:00,28.4330,-82.6670,60.75,11111222 
COMPS,ioos:station:USF.COMPS:ARP:1,2019-11-11T18:54:00,28.4330,-82.6670,62.8,11111222 
COMPS,ioos:station:USF.COMPS:ARP:1,2019-11-11T19:54:00,28.4330,-82.6670,61.68,11111222 
COMPS,ioos:station:USF.COMPS:ARP:1,2019-11-11T20:54:00,28.4330,-82.6670,69.18,11111222 
COMPS,ioos:station:USF.COMPS:ARP:1,2019-11-11T21:54:00,28.4330,-82.6670,72.04,11111222 
COMPS,ioos:station:USF.COMPS:ARP:1,2019-11-11T22:54:00,28.4330,-82.6670,81.5,11111222 
COMPS,ioos:station:USF.COMPS:ARP:1,2019-11-11T23:54:00,28.4330,-82.6670,83.5,11111222 
COMPS,ioos:station:USF.COMPS:ARP:1,2019-11-12T00:54:00,28.4330,-82.6670,81.62,11111222 
COMPS,ioos:station:USF.COMPS:ARP:1,2019-11-12T01:54:00,28.4330,-82.6670,83.76,11111222 
COMPS,ioos:station:USF.COMPS:ARP:1,2019-11-12T02:54:00,28.4330,-82.6670,83.28,11111222 
COMPS,ioos:station:USF.COMPS:ARP:1,2019-11-12T03:54:00,28.4330,-82.6670,87.31,11111222 
COMPS,ioos:station:USF.COMPS:ARP:1,2019-11-12T04:54:00,28.4330,-82.6670,90.94,11111222 
COMPS,ioos:station:USF.COMPS:ARP:1,2019-11-12T05:54:00,28.4330,-82.6670,89.5,11111222 
COMPS,ioos:station:USF.COMPS:ARP:1,2019-11-12T06:54:00,28.4330,-82.6670,91.66,11111222 
COMPS,ioos:station:USF.COMPS:ARP:1,2019-11-12T07:54:00,28.4330,-82.6670,92.73,11111222 
COMPS,ioos:station:USF.COMPS:ARP:1,2019-11-12T08:54:00,28.4330,-82.6670,92.81,11111222 
COMPS,ioos:station:USF.COMPS:ARP:1,2019-11-12T09:54:00,28.4330,-82.6670,95.1,11111222 
COMPS,ioos:station:USF.COMPS:ARP:1,2019-11-12T10:54:00,28.4330,-82.6670,96.17,11111222 
COMPS,ioos:station:USF.COMPS:ARP:1,2019-11-12T11:54:00,28.4330,-82.6670,95.13,11111222 
COMPS,ioos:station:USF.COMPS:ARP:1,2019-11-12T12:54:00,28.4330,-82.6670,97.05,11111222 
COMPS,ioos:station:USF.COMPS:ARP:1,2019-11-12T13:54:00,28.4330,-82.6670,82.74,11111222 
COMPS,ioos:station:USF.COMPS:ARP:1,2019-11-12T14:54:00,28.4330,-82.6670,92.26,11111222 
COMPS,ioos:station:USF.COMPS:ARP:1,2019-11-12T15:54:00,28.4330,-82.6670,79.4,11111222 
COMPS,ioos:station:USF.COMPS:ARP:1,2019-11-12T16:54:00,28.4330,-82.6670,80.78,11111222 
COMPS,ioos:station:USF.COMPS:ARP:1,2019-11-12T17:54:00,28.4330,-82.6670,84.34,11111222 
COMPS,ioos:station:USF.COMPS:ARP:1,2019-11-12T18:54:00,28.4330,-82.6670,81.27,11111222 